contact:dominique.lefevre@mio.osupytheas.fr, maurice.libes@osupytheas.fr, didier.mallarino@osupytheas.fr
Project:EMSO http://www.emso-fr.org/EMSO-France
Depth: 2436.0 m
Title:EMSO Ligure Ouest : Data MII capteur MICROCAT
DateTime_Computer,Latitude,Longitude,Temperature,Conductivity,Pressure,DateTime_Instrument
DateTime_Computer,Latitude,Longitude,degC,S m-1,dbar,DateTime_Instrument
2020-03-29T00:01:07Z,42.805,6.029,13.2968,4.59970,2470.063,2020-3-29T02:01:45Z
2020-03-29T00:04:10Z,42.805,6.029,13.2968,4.59968,2470.04,2020-3-29T02:04:48Z
2020-03-29T00:07:13Z,42.805,6.029,13.2963,4.59970,2470.077,2020-3-29T02:07:52Z
2020-03-29T00:10:17Z,42.805,6.029,13.2965,4.59969,2470.04,2020-3-29T02:10:55Z
2020-03-29T00:13:20Z,42.805,6.029,13.2968,4.59971,2470.063,2020-3-29T02:13:58Z
2020-03-29T00:16:23Z,42.805,6.029,13.2968,4.59970,2470.03,2020-3-29T02:17:01Z
2020-03-29T00:19:26Z,42.805,6.029,13.2964,4.59969,2470.077,2020-3-29T02:20:05Z
2020-03-29T00:22:30Z,42.805,6.029,13.2968,4.59970,2470.077,2020-3-29T02:23:08Z
2020-03-29T00:25:33Z,42.805,6.029,13.2965,4.59971,2470.077,2020-3-29T02:26:11Z
2020-03-29T00:28:36Z,42.805,6.029,13.2964,4.59971,2470.077,2020-3-29T02:29:15Z
2020-03-29T00:31:40Z,42.805,6.029,13.2967,4.59968,2470.017,2020-3-29T02:32:18Z
2020-03-29T00:34:43Z,42.805,6.029,13.2967,4.59968,2470.063,2020-3-29T02:35:21Z
2020-03-29T00:37:46Z,42.805,6.029,13.2965,4.59970,2470.077,2020-3-29T02:38:24Z
2020-03-29T00:40:49Z,42.805,6.029,13.2966,4.59972,2470.053,2020-3-29T02:41:28Z
2020-03-29T00:43:52Z,42.805,6.029,13.2963,4.59968,2470.063,2020-3-29T02:44:31Z
2020-03-29T00:46:56Z,42.805,6.029,13.2967,4.59967,2470.063,2020-3-29T02:47:34Z
2020-03-29T00:49:59Z,42.805,6.029,13.2966,4.59970,2470.04,2020-3-29T02:50:37Z
2020-03-29T00:53:02Z,42.805,6.029,13.2969,4.59970,2470.03,2020-3-29T02:53:41Z
2020-03-29T00:56:06Z,42.805,6.029,13.2967,4.59969,2470.03,2020-3-29T02:56:44Z
2020-03-29T00:59:09Z,42.805,6.029,13.2965,4.59969,2470.017,2020-3-29T02:59:47Z
2020-03-29T01:02:12Z,42.805,6.029,13.2967,4.59970,2470.017,2020-3-29T03:02:50Z
2020-03-29T01:05:15Z,42.805,6.029,13.2967,4.59969,2470.04,2020-3-29T03:05:54Z
2020-03-29T01:08:19Z,42.805,6.029,13.2967,4.59971,2470.04,2020-3-29T03:08:57Z
2020-03-29T01:11:22Z,42.805,6.029,13.2968,4.59969,2470.017,2020-3-29T03:12:00Z
2020-03-29T01:14:25Z,42.805,6.029,13.2965,4.59968,2470.017,2020-3-29T03:15:03Z
2020-03-29T01:17:28Z,42.805,6.029,13.2966,4.59968,2469.993,2020-3-29T03:18:07Z
2020-03-29T01:20:32Z,42.805,6.029,13.2965,4.59970,2470.017,2020-3-29T03:21:10Z
2020-03-29T01:23:35Z,42.805,6.029,13.2968,4.59969,2470.017,2020-3-29T03:24:13Z
2020-03-29T01:26:38Z,42.805,6.029,13.2967,4.59971,2470.04,2020-3-29T03:27:16Z
2020-03-29T01:29:41Z,42.805,6.029,13.2968,4.59969,2470.03,2020-3-29T03:30:20Z
2020-03-29T01:32:45Z,42.805,6.029,13.2966,4.59968,2470.017,2020-3-29T03:33:23Z
2020-03-29T01:35:48Z,42.805,6.029,13.2971,4.59968,2469.993,2020-3-29T03:36:26Z
2020-03-29T01:38:51Z,42.805,6.029,13.2961,4.59967,2469.993,2020-3-29T03:39:29Z
2020-03-29T01:41:54Z,42.805,6.029,13.2970,4.59971,2470.04,2020-3-29T03:42:32Z
2020-03-29T01:44:57Z,42.805,6.029,13.2967,4.59969,2469.97,2020-3-29T03:45:36Z
2020-03-29T01:48:01Z,42.805,6.029,13.2963,4.59968,2470.03,2020-3-29T03:48:39Z
2020-03-29T01:51:04Z,42.805,6.029,13.2966,4.59970,2470.017,2020-3-29T03:51:42Z
2020-03-29T01:54:07Z,42.805,6.029,13.2967,4.59970,2470.017,2020-3-29T03:54:45Z
2020-03-29T01:57:10Z,42.805,6.029,13.2967,4.59968,2469.993,2020-3-29T03:57:49Z
2020-03-29T02:00:14Z,42.805,6.029,13.2966,4.59970,2469.993,2020-3-29T04:00:52Z
2020-03-29T02:03:17Z,42.805,6.029,13.2968,4.59967,2470.017,2020-3-29T04:03:55Z
2020-03-29T02:06:20Z,42.805,6.029,13.2963,4.59970,2469.993,2020-3-29T04:06:58Z
2020-03-29T02:09:23Z,42.805,6.029,13.2967,4.59968,2469.993,2020-3-29T04:10:02Z
2020-03-29T02:12:27Z,42.805,6.029,13.2967,4.59971,2469.97,2020-3-29T04:13:05Z
2020-03-29T02:15:30Z,42.805,6.029,13.2966,4.59968,2470.017,2020-3-29T04:16:08Z
2020-03-29T02:18:33Z,42.805,6.029,13.2964,4.59968,2470.017,2020-3-29T04:19:11Z
2020-03-29T02:21:36Z,42.805,6.029,13.2963,4.59970,2469.97,2020-3-29T04:22:14Z
2020-03-29T02:24:39Z,42.805,6.029,13.2965,4.59970,2469.979,2020-3-29T04:25:18Z
2020-03-29T02:27:43Z,42.805,6.029,13.2965,4.59971,2469.947,2020-3-29T04:28:21Z
2020-03-29T02:30:46Z,42.805,6.029,13.2964,4.59969,2469.993,2020-3-29T04:31:24Z
2020-03-29T02:33:49Z,42.805,6.029,13.2967,4.59971,2469.97,2020-3-29T04:34:28Z
2020-03-29T02:36:53Z,42.805,6.029,13.2965,4.59968,2470.017,2020-3-29T04:37:31Z
2020-03-29T02:39:56Z,42.805,6.029,13.2967,4.59970,2469.97,2020-3-29T04:40:34Z
2020-03-29T02:42:59Z,42.805,6.029,13.2966,4.59970,2469.97,2020-3-29T04:43:37Z
2020-03-29T02:46:02Z,42.805,6.029,13.2964,4.59969,2469.947,2020-3-29T04:46:41Z
2020-03-29T02:49:06Z,42.805,6.029,13.2967,4.59970,2469.993,2020-3-29T04:49:44Z
2020-03-29T02:52:09Z,42.805,6.029,13.2971,4.59969,2470.007,2020-3-29T04:52:47Z
2020-03-29T02:55:12Z,42.805,6.029,13.2965,4.59970,2469.947,2020-3-29T04:55:50Z
2020-03-29T02:58:15Z,42.805,6.029,13.2968,4.59969,2469.993,2020-3-29T04:58:54Z
2020-03-29T03:01:19Z,42.805,6.029,13.2966,4.59968,2469.993,2020-3-29T05:01:57Z
2020-03-29T03:04:22Z,42.805,6.029,13.2969,4.59968,2469.984,2020-3-29T05:05:00Z
2020-03-29T03:07:25Z,42.805,6.029,13.2968,4.59969,2469.984,2020-3-29T05:08:03Z
2020-03-29T03:10:28Z,42.805,6.029,13.2964,4.59968,2469.947,2020-3-29T05:11:07Z
2020-03-29T03:13:32Z,42.805,6.029,13.2967,4.59967,2469.984,2020-3-29T05:14:10Z
2020-03-29T03:16:35Z,42.805,6.029,13.2967,4.59968,2470.007,2020-3-29T05:17:13Z
2020-03-29T03:19:38Z,42.805,6.029,13.2967,4.59969,2470.007,2020-3-29T05:20:17Z
2020-03-29T03:22:42Z,42.805,6.029,13.2964,4.59971,2469.97,2020-3-29T05:23:20Z
2020-03-29T03:25:45Z,42.805,6.029,13.2968,4.59970,2469.984,2020-3-29T05:26:23Z
2020-03-29T03:28:48Z,42.805,6.029,13.2967,4.59970,2469.984,2020-3-29T05:29:26Z
2020-03-29T03:31:51Z,42.805,6.029,13.2968,4.59969,2469.984,2020-3-29T05:32:30Z
2020-03-29T03:34:55Z,42.805,6.029,13.2969,4.59969,2469.97,2020-3-29T05:35:33Z
2020-03-29T03:37:58Z,42.805,6.029,13.2962,4.59967,2469.947,2020-3-29T05:38:36Z
2020-03-29T03:41:01Z,42.805,6.029,13.2966,4.59967,2469.993,2020-3-29T05:41:39Z
2020-03-29T03:44:04Z,42.805,6.029,13.2962,4.59971,2469.993,2020-3-29T05:44:43Z
2020-03-29T03:47:08Z,42.805,6.029,13.2961,4.59968,2469.96,2020-3-29T05:47:46Z
2020-03-29T03:50:11Z,42.805,6.029,13.2964,4.59968,2470.007,2020-3-29T05:50:49Z
2020-03-29T03:53:14Z,42.805,6.029,13.2967,4.59968,2469.97,2020-3-29T05:53:53Z
2020-03-29T03:56:18Z,42.805,6.029,13.2969,4.59968,2469.96,2020-3-29T05:56:56Z
2020-03-29T03:59:21Z,42.805,6.029,13.2967,4.59973,2469.947,2020-3-29T05:59:59Z
2020-03-29T04:02:24Z,42.805,6.029,13.2969,4.59969,2469.97,2020-3-29T06:03:02Z
2020-03-29T04:05:27Z,42.805,6.029,13.2968,4.59970,2469.984,2020-3-29T06:06:06Z
2020-03-29T04:08:31Z,42.805,6.029,13.2962,4.59967,2469.956,2020-3-29T06:09:09Z
2020-03-29T04:11:34Z,42.805,6.029,13.2967,4.59970,2469.97,2020-3-29T06:12:12Z
2020-03-29T04:14:37Z,42.805,6.029,13.2968,4.59968,2469.947,2020-3-29T06:15:15Z
2020-03-29T04:17:40Z,42.805,6.029,13.2966,4.59969,2469.97,2020-3-29T06:18:19Z
2020-03-29T04:20:44Z,42.805,6.029,13.2963,4.59968,2469.947,2020-3-29T06:21:22Z
2020-03-29T04:23:47Z,42.805,6.029,13.2968,4.59970,2469.984,2020-3-29T06:24:25Z
2020-03-29T04:26:50Z,42.805,6.029,13.2966,4.59968,2469.947,2020-3-29T06:27:28Z
2020-03-29T04:29:53Z,42.805,6.029,13.2965,4.59968,2469.97,2020-3-29T06:30:32Z
2020-03-29T04:32:57Z,42.805,6.029,13.2967,4.59968,2470.007,2020-3-29T06:33:35Z
2020-03-29T04:36:00Z,42.805,6.029,13.2967,4.59967,2469.97,2020-3-29T06:36:38Z
2020-03-29T04:39:03Z,42.805,6.029,13.2967,4.59966,2469.993,2020-3-29T06:39:41Z
2020-03-29T04:42:06Z,42.805,6.029,13.2965,4.59968,2469.96,2020-3-29T06:42:45Z
2020-03-29T04:45:10Z,42.805,6.029,13.2964,4.59967,2469.97,2020-3-29T06:45:48Z
2020-03-29T04:48:13Z,42.805,6.029,13.2968,4.59969,2469.96,2020-3-29T06:48:51Z
2020-03-29T04:51:16Z,42.805,6.029,13.2964,4.59967,2469.97,2020-3-29T06:51:54Z
2020-03-29T04:54:19Z,42.805,6.029,13.2967,4.59966,2469.947,2020-3-29T06:54:57Z
2020-03-29T04:57:22Z,42.805,6.029,13.2966,4.59966,2469.97,2020-3-29T06:58:01Z
2020-03-29T05:00:26Z,42.805,6.029,13.2964,4.59968,2469.97,2020-3-29T07:01:04Z
2020-03-29T05:03:29Z,42.805,6.029,13.2965,4.59968,2470.007,2020-3-29T07:04:07Z
2020-03-29T05:06:32Z,42.805,6.029,13.2962,4.59967,2469.937,2020-3-29T07:07:10Z
2020-03-29T05:09:35Z,42.805,6.029,13.2965,4.59968,2469.984,2020-3-29T07:10:14Z
2020-03-29T05:12:39Z,42.805,6.029,13.2966,4.59969,2469.97,2020-3-29T07:13:17Z
2020-03-29T05:15:42Z,42.805,6.029,13.2968,4.59969,2469.97,2020-3-29T07:16:20Z
2020-03-29T05:18:45Z,42.805,6.029,13.2966,4.59970,2469.96,2020-3-29T07:19:23Z
2020-03-29T05:21:48Z,42.805,6.029,13.2971,4.59969,2469.97,2020-3-29T07:22:27Z
2020-03-29T05:24:52Z,42.805,6.029,13.2968,4.59969,2469.984,2020-3-29T07:25:30Z
2020-03-29T05:27:55Z,42.805,6.029,13.2963,4.59969,2469.97,2020-3-29T07:28:33Z
2020-03-29T05:30:58Z,42.805,6.029,13.2967,4.59968,2469.97,2020-3-29T07:31:36Z
2020-03-29T05:34:01Z,42.805,6.029,13.2962,4.59972,2469.97,2020-3-29T07:34:40Z
2020-03-29T05:37:05Z,42.805,6.029,13.2967,4.59968,2469.984,2020-3-29T07:37:43Z
2020-03-29T05:40:08Z,42.805,6.029,13.2966,4.59969,2469.947,2020-3-29T07:40:46Z
2020-03-29T05:43:11Z,42.805,6.029,13.2967,4.59968,2469.947,2020-3-29T07:43:49Z
2020-03-29T05:46:14Z,42.805,6.029,13.2968,4.59971,2469.993,2020-3-29T07:46:53Z
2020-03-29T05:49:17Z,42.805,6.029,13.2965,4.59968,2469.993,2020-3-29T07:49:56Z
2020-03-29T05:52:21Z,42.805,6.029,13.2964,4.59968,2469.97,2020-3-29T07:52:59Z
2020-03-29T05:55:24Z,42.805,6.029,13.2968,4.59968,2469.97,2020-3-29T07:56:02Z
2020-03-29T05:58:27Z,42.805,6.029,13.2967,4.59970,2469.993,2020-3-29T07:59:06Z
2020-03-29T06:01:31Z,42.805,6.029,13.2964,4.59969,2469.984,2020-3-29T08:02:09Z
2020-03-29T06:04:34Z,42.805,6.029,13.2968,4.59972,2469.97,2020-3-29T08:05:12Z
2020-03-29T06:07:37Z,42.805,6.029,13.2964,4.59967,2470.017,2020-3-29T08:08:15Z
2020-03-29T06:10:40Z,42.805,6.029,13.2962,4.59971,2469.97,2020-3-29T08:11:18Z
2020-03-29T06:13:43Z,42.805,6.029,13.2966,4.59971,2470.017,2020-3-29T08:14:22Z
2020-03-29T06:16:47Z,42.805,6.029,13.2965,4.59970,2469.984,2020-3-29T08:17:25Z
2020-03-29T06:19:50Z,42.805,6.029,13.2964,4.59968,2469.984,2020-3-29T08:20:28Z
2020-03-29T06:22:53Z,42.805,6.029,13.2965,4.59969,2470.03,2020-3-29T08:23:31Z
2020-03-29T06:25:56Z,42.805,6.029,13.2968,4.59969,2469.993,2020-3-29T08:26:35Z
2020-03-29T06:29:00Z,42.805,6.029,13.2964,4.59971,2469.993,2020-3-29T08:29:38Z
2020-03-29T06:32:03Z,42.805,6.029,13.2968,4.59969,2469.97,2020-3-29T08:32:41Z
2020-03-29T06:35:06Z,42.805,6.029,13.2967,4.59968,2469.97,2020-3-29T08:35:44Z
2020-03-29T06:38:09Z,42.805,6.029,13.2965,4.59968,2470.007,2020-3-29T08:38:48Z
2020-03-29T06:41:13Z,42.805,6.029,13.2967,4.59969,2470.007,2020-3-29T08:41:51Z
2020-03-29T06:44:16Z,42.805,6.029,13.2966,4.59968,2470.03,2020-3-29T08:44:54Z
2020-03-29T06:47:19Z,42.805,6.029,13.2962,4.59971,2469.993,2020-3-29T08:47:57Z
2020-03-29T06:50:22Z,42.805,6.029,13.2968,4.59970,2469.984,2020-3-29T08:51:01Z
2020-03-29T06:53:26Z,42.805,6.029,13.2969,4.59968,2470.017,2020-3-29T08:54:04Z
2020-03-29T06:56:29Z,42.805,6.029,13.2966,4.59969,2470.017,2020-3-29T08:57:07Z
2020-03-29T06:59:32Z,42.805,6.029,13.2964,4.59970,2470.053,2020-3-29T09:00:11Z
2020-03-29T07:02:36Z,42.805,6.029,13.2965,4.59969,2469.993,2020-3-29T09:03:14Z
2020-03-29T07:05:39Z,42.805,6.029,13.2967,4.59970,2469.993,2020-3-29T09:06:17Z
2020-03-29T07:08:42Z,42.805,6.029,13.2968,4.59969,2470.03,2020-3-29T09:09:20Z
2020-03-29T07:11:45Z,42.805,6.029,13.2967,4.59970,2470.007,2020-3-29T09:12:24Z
2020-03-29T07:14:48Z,42.805,6.029,13.2963,4.59972,2470.077,2020-3-29T09:15:27Z
2020-03-29T07:17:52Z,42.805,6.029,13.2967,4.59969,2470.017,2020-3-29T09:18:30Z
2020-03-29T07:20:55Z,42.805,6.029,13.2967,4.59969,2470.03,2020-3-29T09:21:33Z
2020-03-29T07:23:58Z,42.805,6.029,13.2962,4.59970,2470.03,2020-3-29T09:24:36Z
2020-03-29T07:27:01Z,42.805,6.029,13.2967,4.59970,2470.053,2020-3-29T09:27:40Z
2020-03-29T07:30:05Z,42.805,6.029,13.2967,4.59971,2470.026,2020-3-29T09:30:43Z
2020-03-29T07:33:08Z,42.805,6.029,13.2968,4.59970,2470.063,2020-3-29T09:33:46Z
2020-03-29T07:36:11Z,42.805,6.029,13.2967,4.59970,2470.017,2020-3-29T09:36:49Z
2020-03-29T07:39:14Z,42.805,6.029,13.2967,4.59972,2470.04,2020-3-29T09:39:53Z
2020-03-29T07:42:17Z,42.805,6.029,13.2967,4.59971,2470.063,2020-3-29T09:42:56Z
2020-03-29T07:45:21Z,42.805,6.029,13.2968,4.59971,2470.053,2020-3-29T09:45:59Z
2020-03-29T07:48:24Z,42.805,6.029,13.2968,4.59970,2470.087,2020-3-29T09:49:02Z
2020-03-29T07:51:27Z,42.805,6.029,13.2967,4.59969,2470.04,2020-3-29T09:52:05Z
2020-03-29T07:54:31Z,42.805,6.029,13.2968,4.59969,2470.04,2020-3-29T09:55:09Z
2020-03-29T07:57:34Z,42.805,6.029,13.2967,4.59970,2470.063,2020-3-29T09:58:12Z
2020-03-29T08:00:37Z,42.805,6.029,13.2968,4.59971,2470.063,2020-3-29T10:01:15Z
2020-03-29T08:03:40Z,42.805,6.029,13.2962,4.59969,2470.077,2020-3-29T10:04:18Z
2020-03-29T08:06:44Z,42.805,6.029,13.2967,4.59973,2470.063,2020-3-29T10:07:22Z
2020-03-29T08:09:47Z,42.805,6.029,13.2967,4.59971,2470.063,2020-3-29T10:10:25Z
2020-03-29T08:12:50Z,42.805,6.029,13.2968,4.59969,2470.063,2020-3-29T10:13:28Z
2020-03-29T08:15:53Z,42.805,6.029,13.2964,4.59969,2470.087,2020-3-29T10:16:31Z
2020-03-29T08:18:56Z,42.805,6.029,13.2968,4.59970,2470.087,2020-3-29T10:19:35Z
2020-03-29T08:22:00Z,42.805,6.029,13.2964,4.59968,2470.063,2020-3-29T10:22:38Z
2020-03-29T08:25:03Z,42.805,6.029,13.2967,4.59969,2470.063,2020-3-29T10:25:41Z
2020-03-29T08:28:06Z,42.805,6.029,13.2970,4.59970,2470.077,2020-3-29T10:28:45Z
2020-03-29T08:31:10Z,42.805,6.029,13.2964,4.59969,2470.1,2020-3-29T10:31:48Z
2020-03-29T08:34:13Z,42.805,6.029,13.2966,4.59969,2470.1,2020-3-29T10:34:51Z
2020-03-29T08:37:16Z,42.805,6.029,13.2968,4.59969,2470.1,2020-3-29T10:37:54Z
2020-03-29T08:40:19Z,42.805,6.029,13.2967,4.59969,2470.124,2020-3-29T10:40:58Z
2020-03-29T08:43:23Z,42.805,6.029,13.2965,4.59969,2470.11,2020-3-29T10:44:01Z
2020-03-29T08:46:26Z,42.805,6.029,13.2969,4.59968,2470.1,2020-3-29T10:47:04Z
2020-03-29T08:49:29Z,42.805,6.029,13.2970,4.59968,2470.11,2020-3-29T10:50:07Z
2020-03-29T08:52:32Z,42.805,6.029,13.2968,4.59971,2470.063,2020-3-29T10:53:11Z
2020-03-29T08:55:36Z,42.805,6.029,13.2965,4.59969,2470.087,2020-3-29T10:56:14Z
2020-03-29T08:58:39Z,42.805,6.029,13.2967,4.59972,2470.087,2020-3-29T10:59:17Z
2020-03-29T09:01:42Z,42.805,6.029,13.2967,4.59969,2470.11,2020-3-29T11:02:20Z
2020-03-29T09:04:45Z,42.805,6.029,13.2966,4.59971,2470.063,2020-3-29T11:05:24Z
2020-03-29T09:07:49Z,42.805,6.029,13.2963,4.59972,2470.087,2020-3-29T11:08:27Z
2020-03-29T09:10:52Z,42.805,6.029,13.2968,4.59970,2470.11,2020-3-29T11:11:30Z
2020-03-29T09:13:55Z,42.805,6.029,13.2970,4.59971,2470.1,2020-3-29T11:14:33Z
2020-03-29T09:16:58Z,42.805,6.029,13.2965,4.59969,2470.063,2020-3-29T11:17:37Z
2020-03-29T09:20:02Z,42.805,6.029,13.2966,4.59971,2470.1,2020-3-29T11:20:40Z
2020-03-29T09:23:05Z,42.805,6.029,13.2968,4.59971,2470.11,2020-3-29T11:23:43Z
2020-03-29T09:26:08Z,42.805,6.029,13.2967,4.59970,2470.087,2020-3-29T11:26:46Z
2020-03-29T09:29:11Z,42.805,6.029,13.2967,4.59969,2470.11,2020-3-29T11:29:49Z
2020-03-29T09:32:14Z,42.805,6.029,13.2965,4.59970,2470.087,2020-3-29T11:32:53Z
2020-03-29T09:35:18Z,42.805,6.029,13.2969,4.59969,2470.11,2020-3-29T11:35:56Z
2020-03-29T09:38:21Z,42.805,6.029,13.2965,4.59969,2470.087,2020-3-29T11:38:59Z
2020-03-29T09:41:24Z,42.805,6.029,13.2967,4.59969,2470.087,2020-3-29T11:42:02Z
2020-03-29T09:44:27Z,42.805,6.029,13.2967,4.59968,2470.096,2020-3-29T11:45:06Z
2020-03-29T09:47:31Z,42.805,6.029,13.2964,4.59970,2470.073,2020-3-29T11:48:09Z
2020-03-29T09:50:34Z,42.805,6.029,13.2967,4.59968,2470.1,2020-3-29T11:51:12Z
2020-03-29T09:53:37Z,42.805,6.029,13.2965,4.59970,2470.11,2020-3-29T11:54:15Z
2020-03-29T09:56:40Z,42.805,6.029,13.2968,4.59971,2470.053,2020-3-29T11:57:19Z
2020-03-29T09:59:44Z,42.805,6.029,13.2971,4.59969,2470.087,2020-3-29T12:00:22Z
2020-03-29T10:02:47Z,42.805,6.029,13.2965,4.59973,2470.087,2020-3-29T12:03:25Z
2020-03-29T10:05:50Z,42.805,6.029,13.2971,4.59973,2470.063,2020-3-29T12:06:28Z
2020-03-29T10:08:53Z,42.805,6.029,13.2968,4.59969,2470.087,2020-3-29T12:09:32Z
2020-03-29T10:11:57Z,42.805,6.029,13.2967,4.59970,2470.11,2020-3-29T12:12:35Z
2020-03-29T10:15:00Z,42.805,6.029,13.2964,4.59971,2470.087,2020-3-29T12:15:38Z
2020-03-29T10:18:03Z,42.805,6.029,13.2967,4.59972,2470.077,2020-3-29T12:18:41Z
2020-03-29T10:21:06Z,42.805,6.029,13.2968,4.59971,2470.063,2020-3-29T12:21:45Z
2020-03-29T10:24:10Z,42.805,6.029,13.2965,4.59968,2470.087,2020-3-29T12:24:48Z
2020-03-29T10:27:13Z,42.805,6.029,13.2964,4.59971,2470.087,2020-3-29T12:27:51Z
2020-03-29T10:30:16Z,42.805,6.029,13.2968,4.59970,2470.063,2020-3-29T12:30:54Z
2020-03-29T10:33:19Z,42.805,6.029,13.2965,4.59971,2470.087,2020-3-29T12:33:58Z
2020-03-29T10:36:23Z,42.805,6.029,13.2971,4.59971,2470.063,2020-3-29T12:37:01Z
2020-03-29T10:39:26Z,42.805,6.029,13.2964,4.59970,2470.063,2020-3-29T12:40:04Z
2020-03-29T10:42:29Z,42.805,6.029,13.2974,4.59973,2470.1,2020-3-29T12:43:07Z
2020-03-29T10:45:32Z,42.805,6.029,13.2967,4.59971,2470.053,2020-3-29T12:46:11Z
2020-03-29T10:48:36Z,42.805,6.029,13.2967,4.59971,2470.087,2020-3-29T12:49:14Z
2020-03-29T10:51:39Z,42.805,6.029,13.2965,4.59971,2470.063,2020-3-29T12:52:17Z
2020-03-29T10:54:42Z,42.805,6.029,13.2968,4.59971,2470.087,2020-3-29T12:55:20Z
2020-03-29T10:57:45Z,42.805,6.029,13.2970,4.59971,2470.087,2020-3-29T12:58:23Z
2020-03-29T11:00:49Z,42.805,6.029,13.2966,4.59969,2470.04,2020-3-29T13:01:27Z
2020-03-29T11:03:52Z,42.805,6.029,13.2965,4.59968,2470.063,2020-3-29T13:04:30Z
2020-03-29T11:06:55Z,42.805,6.029,13.2966,4.59970,2470.11,2020-3-29T13:07:34Z
2020-03-29T11:09:59Z,42.805,6.029,13.2967,4.59969,2470.063,2020-3-29T13:10:37Z
2020-03-29T11:13:02Z,42.805,6.029,13.2963,4.59970,2470.063,2020-3-29T13:13:40Z
2020-03-29T11:16:05Z,42.805,6.029,13.2967,4.59970,2470.063,2020-3-29T13:16:43Z
2020-03-29T11:19:08Z,42.805,6.029,13.2964,4.59969,2470.087,2020-3-29T13:19:46Z
2020-03-29T11:22:11Z,42.805,6.029,13.2968,4.59972,2470.063,2020-3-29T13:22:50Z
2020-03-29T11:25:15Z,42.805,6.029,13.2964,4.59969,2470.063,2020-3-29T13:25:53Z
2020-03-29T11:28:18Z,42.805,6.029,13.2971,4.59971,2470.017,2020-3-29T13:28:56Z
2020-03-29T11:31:21Z,42.805,6.029,13.2967,4.59969,2470.04,2020-3-29T13:32:00Z
2020-03-29T11:34:25Z,42.805,6.029,13.2969,4.59974,2470.063,2020-3-29T13:35:03Z
2020-03-29T11:37:28Z,42.805,6.029,13.2967,4.59970,2470.063,2020-3-29T13:38:06Z
2020-03-29T11:40:31Z,42.805,6.029,13.2969,4.59970,2470.063,2020-3-29T13:41:09Z
2020-03-29T11:43:34Z,42.805,6.029,13.2968,4.59969,2470.063,2020-3-29T13:44:13Z
2020-03-29T11:46:38Z,42.805,6.029,13.2968,4.59969,2470.053,2020-3-29T13:47:16Z
2020-03-29T11:49:41Z,42.805,6.029,13.2965,4.59971,2470.04,2020-3-29T13:50:19Z
2020-03-29T11:52:44Z,42.805,6.029,13.2967,4.59968,2470.04,2020-3-29T13:53:22Z
2020-03-29T11:55:47Z,42.805,6.029,13.2967,4.59968,2470.026,2020-3-29T13:56:26Z
2020-03-29T11:58:51Z,42.805,6.029,13.2968,4.59970,2470.04,2020-3-29T13:59:29Z
2020-03-29T12:01:54Z,42.805,6.029,13.2967,4.59970,2470.04,2020-3-29T14:02:32Z
2020-03-29T12:04:57Z,42.805,6.029,13.2967,4.59969,2470.003,2020-3-29T14:05:35Z
2020-03-29T12:08:00Z,42.805,6.029,13.2968,4.59970,2470.04,2020-3-29T14:08:39Z
2020-03-29T12:11:04Z,42.805,6.029,13.2965,4.59969,2470.04,2020-3-29T14:11:42Z
2020-03-29T12:14:07Z,42.805,6.029,13.2968,4.59969,2470.053,2020-3-29T14:14:45Z
2020-03-29T12:17:10Z,42.805,6.029,13.2967,4.59968,2470.063,2020-3-29T14:17:48Z
2020-03-29T12:20:13Z,42.805,6.029,13.2968,4.59968,2470.03,2020-3-29T14:20:52Z
2020-03-29T12:23:17Z,42.805,6.029,13.2969,4.59969,2470.04,2020-3-29T14:23:55Z
2020-03-29T12:26:20Z,42.805,6.029,13.2967,4.59968,2470.017,2020-3-29T14:26:58Z
2020-03-29T12:29:23Z,42.805,6.029,13.2966,4.59970,2470.017,2020-3-29T14:30:01Z
2020-03-29T12:32:26Z,42.805,6.029,13.2967,4.59968,2470.053,2020-3-29T14:33:05Z
2020-03-29T12:35:30Z,42.805,6.029,13.2966,4.59969,2470.017,2020-3-29T14:36:08Z
2020-03-29T12:38:33Z,42.805,6.029,13.2967,4.59970,2470.03,2020-3-29T14:39:11Z
2020-03-29T12:41:36Z,42.805,6.029,13.2969,4.59970,2470.03,2020-3-29T14:42:14Z
2020-03-29T12:44:39Z,42.805,6.029,13.2967,4.59969,2470.017,2020-3-29T14:45:18Z
2020-03-29T12:47:43Z,42.805,6.029,13.2969,4.59970,2470.017,2020-3-29T14:48:21Z
2020-03-29T12:50:46Z,42.805,6.029,13.2965,4.59968,2470.04,2020-3-29T14:51:24Z
2020-03-29T12:53:49Z,42.805,6.029,13.2968,4.59970,2470.053,2020-3-29T14:54:27Z
2020-03-29T12:56:52Z,42.805,6.029,13.2969,4.59968,2470.017,2020-3-29T14:57:31Z
2020-03-29T12:59:56Z,42.805,6.029,13.2966,4.59969,2470.003,2020-3-29T15:00:34Z
2020-03-29T13:02:59Z,42.805,6.029,13.2966,4.59968,2469.984,2020-3-29T15:03:37Z
2020-03-29T13:06:02Z,42.805,6.029,13.2966,4.59968,2469.993,2020-3-29T15:06:40Z
2020-03-29T13:09:05Z,42.805,6.029,13.2966,4.59968,2469.993,2020-3-29T15:09:44Z
2020-03-29T13:12:08Z,42.805,6.029,13.2967,4.59968,2469.97,2020-3-29T15:12:47Z
2020-03-29T13:15:12Z,42.805,6.029,13.2964,4.59968,2470.017,2020-3-29T15:15:50Z
2020-03-29T13:18:15Z,42.805,6.029,13.2967,4.59971,2469.993,2020-3-29T15:18:53Z
2020-03-29T13:21:18Z,42.805,6.029,13.2964,4.59969,2470.007,2020-3-29T15:21:57Z
2020-03-29T13:24:22Z,42.805,6.029,13.2968,4.59967,2469.993,2020-3-29T15:25:00Z
2020-03-29T13:27:25Z,42.805,6.029,13.2967,4.59968,2470.007,2020-3-29T15:28:03Z
2020-03-29T13:30:28Z,42.805,6.029,13.2967,4.59970,2469.993,2020-3-29T15:31:07Z
2020-03-29T13:33:31Z,42.805,6.029,13.2971,4.59969,2470.017,2020-3-29T15:34:10Z
2020-03-29T13:36:35Z,42.805,6.029,13.2966,4.59970,2469.97,2020-3-29T15:37:13Z
2020-03-29T13:39:38Z,42.805,6.029,13.2966,4.59969,2469.97,2020-3-29T15:40:16Z
2020-03-29T13:42:41Z,42.805,6.029,13.2972,4.59969,2469.97,2020-3-29T15:43:19Z
2020-03-29T13:45:44Z,42.805,6.029,13.2967,4.59969,2469.97,2020-3-29T15:46:23Z
2020-03-29T13:48:48Z,42.805,6.029,13.2968,4.59968,2469.993,2020-3-29T15:49:26Z
2020-03-29T13:51:51Z,42.805,6.029,13.2966,4.59968,2469.96,2020-3-29T15:52:29Z
2020-03-29T13:54:54Z,42.805,6.029,13.2970,4.59968,2469.984,2020-3-29T15:55:32Z
2020-03-29T13:57:57Z,42.805,6.029,13.2968,4.59968,2469.984,2020-3-29T15:58:36Z
2020-03-29T14:01:00Z,42.805,6.029,13.2968,4.59968,2470.03,2020-3-29T16:01:39Z
2020-03-29T14:04:04Z,42.805,6.029,13.2965,4.59968,2470.007,2020-3-29T16:04:42Z
2020-03-29T14:07:07Z,42.805,6.029,13.2968,4.59968,2469.993,2020-3-29T16:07:45Z
2020-03-29T14:10:10Z,42.805,6.029,13.2970,4.59968,2469.937,2020-3-29T16:10:48Z
2020-03-29T14:13:13Z,42.805,6.029,13.2968,4.59968,2469.97,2020-3-29T16:13:52Z
2020-03-29T14:16:16Z,42.805,6.029,13.2969,4.59968,2469.947,2020-3-29T16:16:55Z
2020-03-29T14:19:20Z,42.805,6.029,13.2968,4.59967,2469.947,2020-3-29T16:19:58Z
2020-03-29T14:22:23Z,42.805,6.029,13.2966,4.59968,2469.97,2020-3-29T16:23:01Z
2020-03-29T14:25:26Z,42.805,6.029,13.2970,4.59968,2469.984,2020-3-29T16:26:04Z
2020-03-29T14:28:29Z,42.805,6.029,13.2967,4.59967,2469.984,2020-3-29T16:29:08Z
2020-03-29T14:31:32Z,42.805,6.029,13.2967,4.59968,2469.947,2020-3-29T16:32:11Z
2020-03-29T14:34:36Z,42.805,6.029,13.2965,4.59968,2469.96,2020-3-29T16:35:14Z
2020-03-29T14:37:39Z,42.805,6.029,13.2967,4.59968,2469.97,2020-3-29T16:38:17Z
2020-03-29T14:40:43Z,42.805,6.029,13.2968,4.59968,2469.984,2020-3-29T16:41:21Z
2020-03-29T14:43:46Z,42.805,6.029,13.2967,4.59968,2469.937,2020-3-29T16:44:24Z
2020-03-29T14:46:49Z,42.805,6.029,13.2967,4.59968,2469.97,2020-3-29T16:47:27Z
2020-03-29T14:49:52Z,42.805,6.029,13.2967,4.59968,2469.947,2020-3-29T16:50:31Z
2020-03-29T14:52:56Z,42.805,6.029,13.2972,4.59967,2469.984,2020-3-29T16:53:34Z
2020-03-29T14:55:59Z,42.805,6.029,13.2968,4.59969,2469.97,2020-3-29T16:56:37Z
2020-03-29T14:59:02Z,42.805,6.029,13.2969,4.59967,2469.984,2020-3-29T16:59:40Z
2020-03-29T15:02:05Z,42.805,6.029,13.2964,4.59968,2469.937,2020-3-29T17:02:43Z
2020-03-29T15:05:08Z,42.805,6.029,13.2967,4.59968,2469.97,2020-3-29T17:05:47Z
2020-03-29T15:08:12Z,42.805,6.029,13.2971,4.59967,2469.96,2020-3-29T17:08:50Z
2020-03-29T15:11:15Z,42.805,6.029,13.2965,4.59968,2469.923,2020-3-29T17:11:53Z
2020-03-29T15:14:18Z,42.805,6.029,13.2966,4.59968,2469.96,2020-3-29T17:14:56Z